Time,TemperatureF,DewpointF,PressureIn,WindDirection,WindDirectionDegrees,WindSpeedMPH,WindSpeedGustMPH,Humidity,HourlyPrecipIn,Conditions,Clouds,dailyrainin,SoftwareType,DateUTC
2013-08-25 00:14:00,72.1,56.0,29.78,East,92,0.0,0.0,58,0.00,,,0.00,weatherlink.com 1.10,2013-08-25 06:14:00,
2013-08-25 00:29:00,71.9,56.0,29.78,ENE,77,0.0,0.0,57,0.00,,,0.00,weatherlink.com 1.10,2013-08-25 06:29:00,
2013-08-25 00:44:00,71.9,56.0,29.79,ENE,77,0.0,0.0,58,0.00,,,0.00,weatherlink.com 1.10,2013-08-25 06:44:00,
2013-08-25 00:59:00,71.8,55.0,29.79,ESE,122,0.0,0.0,55,0.00,,,0.00,weatherlink.com 1.10,2013-08-25 06:59:00,
2013-08-25 01:14:00,71.2,55.0,29.80,West,275,0.0,0.0,57,0.00,,,0.00,weatherlink.com 1.10,2013-08-25 07:14:00,
2013-08-25 01:29:00,70.9,57.0,29.80,NW,325,0.0,1.0,61,0.00,,,0.00,weatherlink.com 1.10,2013-08-25 07:29:00,
2013-08-25 01:44:00,70.1,57.0,29.80,WNW,301,0.0,1.0,63,0.00,,,0.00,weatherlink.com 1.10,2013-08-25 07:44:00,
2013-08-25 01:59:00,69.6,57.0,29.80,NNE,15,0.0,0.0,65,0.00,,,0.00,weatherlink.com 1.10,2013-08-25 07:59:00,
2013-08-25 02:14:00,69.2,58.0,29.80,NNE,15,0.0,0.0,67,0.00,,,0.00,weatherlink.com 1.10,2013-08-25 08:14:00,
2013-08-25 02:29:00,68.9,57.0,29.80,NNE,15,0.0,0.0,66,0.00,,,0.00,weatherlink.com 1.10,2013-08-25 08:29:00,
2013-08-25 02:44:00,68.9,58.0,29.80,NNE,15,0.0,0.0,68,0.00,,,0.00,weatherlink.com 1.10,2013-08-25 08:44:00,
2013-08-25 02:59:00,68.4,57.0,29.79,NNE,15,0.0,0.0,68,0.00,,,0.00,weatherlink.com 1.10,2013-08-25 08:59:00,
2013-08-25 03:14:00,68.4,57.0,29.79,NNE,15,0.0,0.0,68,0.00,,,0.00,weatherlink.com 1.10,2013-08-25 09:14:00,
2013-08-25 03:29:00,68.4,57.0,29.78,NNE,15,0.0,0.0,68,0.00,,,0.00,weatherlink.com 1.10,2013-08-25 09:29:00,
2013-08-25 03:44:00,68.3,58.0,29.78,NNE,15,0.0,0.0,69,0.00,,,0.00,weatherlink.com 1.10,2013-08-25 09:44:00,
2013-08-25 03:59:00,68.2,58.0,29.79,NNE,15,0.0,0.0,69,0.00,,,0.00,weatherlink.com 1.10,2013-08-25 09:59:00,
2013-08-25 04:14:00,67.9,57.0,29.79,NNE,15,0.0,0.0,69,0.00,,,0.00,weatherlink.com 1.10,2013-08-25 10:14:00,
2013-08-25 04:29:00,67.8,58.0,29.79,NNE,15,0.0,0.0,70,0.00,,,0.00,weatherlink.com 1.10,2013-08-25 10:29:00,
2013-08-25 04:44:00,67.7,58.0,29.80,NNE,15,0.0,0.0,70,0.00,,,0.00,weatherlink.com 1.10,2013-08-25 10:44:00,
2013-08-25 04:59:00,67.7,58.0,29.80,NNE,15,0.0,0.0,70,0.00,,,0.00,weatherlink.com 1.10,2013-08-25 10:59:00,
2013-08-25 05:14:00,67.6,57.0,29.80,NNE,15,0.0,0.0,70,0.00,,,0.00,weatherlink.com 1.10,2013-08-25 11:14:00,
2013-08-25 05:29:00,67.9,57.0,29.80,NNE,15,0.0,0.0,69,0.00,,,0.00,weatherlink.com 1.10,2013-08-25 11:29:00,
2013-08-25 05:44:00,68.0,57.0,29.80,NNE,22,0.0,0.0,68,0.00,,,0.00,weatherlink.com 1.10,2013-08-25 11:44:00,
2013-08-25 05:59:00,68.0,57.0,29.81,NNE,22,0.0,0.0,68,0.00,,,0.00,weatherlink.com 1.10,2013-08-25 11:59:00,
2013-08-25 06:14:00,68.1,57.0,29.81,NNE,21,0.0,0.0,68,0.00,,,0.00,weatherlink.com 1.10,2013-08-25 12:14:00,
2013-08-25 06:29:00,68.1,57.0,29.82,NNE,21,0.0,0.0,67,0.00,,,0.00,weatherlink.com 1.10,2013-08-25 12:29:00,
2013-08-25 06:44:00,67.7,57.0,29.82,NNE,21,0.0,0.0,69,0.00,,,0.00,weatherlink.com 1.10,2013-08-25 12:44:00,
2013-08-25 06:59:00,67.4,57.0,29.83,NNE,21,0.0,0.0,70,0.00,,,0.00,weatherlink.com 1.10,2013-08-25 12:59:00,
2013-08-25 07:14:00,68.4,56.0,29.83,ENE,78,0.0,0.0,65,0.00,,,0.00,weatherlink.com 1.10,2013-08-25 13:14:00,
2013-08-25 07:29:00,69.0,56.0,29.84,NNE,32,0.0,0.0,64,0.00,,,0.00,weatherlink.com 1.10,2013-08-25 13:29:00,
2013-08-25 07:44:00,69.7,56.0,29.84,NE,52,0.0,0.0,63,0.00,,,0.00,weatherlink.com 1.10,2013-08-25 13:44:00,
2013-08-25 07:59:00,71.7,56.0,29.84,North,5,0.0,0.0,59,0.00,,,0.00,weatherlink.com 1.10,2013-08-25 13:59:00,
2013-08-25 08:14:00,73.3,57.0,29.84,NNE,25,0.0,0.0,56,0.00,,,0.00,weatherlink.com 1.10,2013-08-25 14:14:00,
2013-08-25 08:29:00,74.5,57.0,29.84,North,5,0.0,0.0,54,0.00,,,0.00,weatherlink.com 1.10,2013-08-25 14:29:00,
2013-08-25 08:45:00,76.2,56.0,29.84,ENE,58,0.0,0.0,50,0.00,,,0.00,weatherlink.com 1.10,2013-08-25 14:45:00,
2013-08-25 09:00:00,77.3,55.0,29.84,NE,51,0.0,0.0,47,0.00,,,0.00,weatherlink.com 1.10,2013-08-25 15:00:00,
2013-08-25 09:15:00,78.2,55.0,29.84,ENE,69,0.0,0.0,45,0.00,,,0.00,weatherlink.com 1.10,2013-08-25 15:15:00,
2013-08-25 09:30:00,78.1,55.0,29.84,NE,36,0.0,2.0,45,0.00,,,0.00,weatherlink.com 1.10,2013-08-25 15:30:00,
2013-08-25 09:45:00,78.8,55.0,29.83,South,178,1.0,2.0,44,0.00,,,0.00,weatherlink.com 1.10,2013-08-25 15:45:00,
2013-08-25 10:00:00,79.5,56.0,29.84,SE,142,0.0,2.0,44,0.00,,,0.00,weatherlink.com 1.10,2013-08-25 16:00:00,
2013-08-25 10:15:00,79.5,55.0,29.84,South,175,0.0,2.0,43,0.00,,,0.00,weatherlink.com 1.10,2013-08-25 16:15:00,
2013-08-25 10:30:00,81.2,55.0,29.84,East,87,0.0,2.0,41,0.00,,,0.00,weatherlink.com 1.10,2013-08-25 16:30:00,
2013-08-25 10:45:00,81.6,56.0,29.84,SSE,161,2.0,6.0,41,0.00,,,0.00,weatherlink.com 1.10,2013-08-25 16:45:00,
2013-08-25 11:00:00,81.4,55.0,29.83,West,273,1.0,5.0,41,0.00,,,0.00,weatherlink.com 1.10,2013-08-25 17:00:00,
2013-08-25 11:15:00,83.0,56.0,29.83,SSW,193,1.0,6.0,39,0.00,,,0.00,weatherlink.com 1.10,2013-08-25 17:15:00,
2013-08-25 11:30:00,82.2,56.0,29.83,SW,230,1.0,11.0,40,0.00,,,0.00,weatherlink.com 1.10,2013-08-25 17:30:00,
2013-08-25 11:45:00,82.5,54.0,29.82,South,184,5.0,7.0,38,0.00,,,0.00,weatherlink.com 1.10,2013-08-25 17:45:00,
2013-08-25 12:00:00,83.2,55.0,29.82,South,169,2.0,7.0,38,0.00,,,0.00,weatherlink.com 1.10,2013-08-25 18:00:00,
2013-08-25 12:15:00,83.5,55.0,29.81,WSW,252,1.0,6.0,37,0.00,,,0.00,weatherlink.com 1.10,2013-08-25 18:15:00,
2013-08-25 12:30:00,83.4,56.0,29.80,WSW,244,2.0,11.0,39,0.00,,,0.00,weatherlink.com 1.10,2013-08-25 18:30:00,
2013-08-25 12:45:00,82.8,55.0,29.80,SW,236,1.0,14.0,39,0.00,,,0.00,weatherlink.com 1.10,2013-08-25 18:45:00,
2013-08-25 13:00:00,83.0,55.0,29.79,WSW,249,2.0,6.0,38,0.00,,,0.00,weatherlink.com 1.10,2013-08-25 19:00:00,
2013-08-25 13:15:00,82.4,55.0,29.79,South,187,1.0,8.0,39,0.00,,,0.00,weatherlink.com 1.10,2013-08-25 19:15:00,
2013-08-25 13:30:00,84.0,55.0,29.79,SSW,204,1.0,11.0,37,0.00,,,0.00,weatherlink.com 1.10,2013-08-25 19:30:00,
2013-08-25 13:45:00,83.4,55.0,29.78,SW,217,0.0,9.0,38,0.00,,,0.00,weatherlink.com 1.10,2013-08-25 19:45:00,
2013-08-25 14:00:00,79.6,58.0,29.79,ESE,117,1.0,14.0,48,0.00,,,0.00,weatherlink.com 1.10,2013-08-25 20:00:00,
2013-08-25 14:15:00,79.3,58.0,29.78,NE,51,2.0,13.0,49,0.00,,,0.00,weatherlink.com 1.10,2013-08-25 20:15:00,
2013-08-25 14:30:00,78.4,57.0,29.77,NE,39,3.0,11.0,48,0.00,,,0.00,weatherlink.com 1.10,2013-08-25 20:30:00,
2013-08-25 14:45:00,79.1,56.0,29.77,NE,56,6.0,11.0,45,0.00,,,0.00,weatherlink.com 1.10,2013-08-25 20:45:00,
2013-08-25 15:00:00,79.5,56.0,29.76,ENE,59,1.0,9.0,45,0.00,,,0.00,weatherlink.com 1.10,2013-08-25 21:00:00,
2013-08-25 15:15:00,80.8,56.0,29.76,East,91,0.0,8.0,43,0.00,,,0.00,weatherlink.com 1.10,2013-08-25 21:15:00,
2013-08-25 15:30:00,80.2,54.0,29.76,ESE,107,9.0,11.0,41,0.00,,,0.00,weatherlink.com 1.10,2013-08-25 21:30:00,
2013-08-25 15:45:00,79.5,55.0,29.76,ENE,57,3.0,11.0,43,0.00,,,0.00,weatherlink.com 1.10,2013-08-25 21:45:00,
2013-08-25 16:00:00,79.2,55.0,29.76,East,84,3.0,11.0,44,0.00,,,0.00,weatherlink.com 1.10,2013-08-25 22:00:00,
2013-08-25 16:15:00,76.9,60.0,29.77,ESE,121,5.0,13.0,56,0.00,,,0.00,weatherlink.com 1.10,2013-08-25 22:15:00,
2013-08-25 16:30:00,72.9,62.0,29.78,ESE,103,1.0,6.0,68,0.01,,,0.01,weatherlink.com 1.10,2013-08-25 22:30:00,
2013-08-25 16:45:00,69.0,63.0,29.76,NNW,328,0.0,3.0,82,0.15,,,0.15,weatherlink.com 1.10,2013-08-25 22:45:00,
2013-08-25 17:00:00,68.5,64.0,29.76,ENE,65,0.0,6.0,84,0.15,,,0.15,weatherlink.com 1.10,2013-08-25 23:00:00,
2013-08-25 17:15:00,70.2,65.0,29.75,ENE,59,0.0,5.0,82,0.15,,,0.15,weatherlink.com 1.10,2013-08-25 23:15:00,
2013-08-25 17:30:00,73.3,65.0,29.75,NE,53,0.0,6.0,74,0.13,,,0.15,weatherlink.com 1.10,2013-08-25 23:30:00,
2013-08-25 17:45:00,75.3,61.0,29.74,ENE,57,0.0,8.0,61,0.00,,,0.15,weatherlink.com 1.10,2013-08-25 23:45:00,
2013-08-25 18:00:00,75.4,59.0,29.74,NNE,32,0.0,6.0,57,0.00,,,0.15,weatherlink.com 1.10,2013-08-26 00:00:00,
2013-08-25 18:15:00,75.7,59.0,29.74,NNE,30,0.0,0.0,56,0.00,,,0.15,weatherlink.com 1.10,2013-08-26 00:15:00,
2013-08-25 18:30:00,76.3,58.0,29.75,NNE,30,0.0,0.0,54,0.00,,,0.15,weatherlink.com 1.10,2013-08-26 00:30:00,
2013-08-25 18:45:00,76.9,58.0,29.75,NW,311,0.0,0.0,53,0.00,,,0.15,weatherlink.com 1.10,2013-08-26 00:45:00,
2013-08-25 19:00:00,76.6,59.0,29.75,West,262,0.0,0.0,54,0.00,,,0.15,weatherlink.com 1.10,2013-08-26 01:00:00,
2013-08-25 19:15:00,76.2,58.0,29.77,WSW,243,0.0,0.0,53,0.00,,,0.15,weatherlink.com 1.10,2013-08-26 01:15:00,
2013-08-25 19:30:00,73.2,60.0,29.79,SE,145,0.0,11.0,63,0.03,,,0.18,weatherlink.com 1.10,2013-08-26 01:30:00,
2013-08-25 19:45:00,69.6,62.0,29.78,SSE,153,0.0,0.0,76,0.04,,,0.19,weatherlink.com 1.10,2013-08-26 01:45:00,
2013-08-25 20:00:00,68.3,63.0,29.80,SSE,153,0.0,0.0,82,0.05,,,0.20,weatherlink.com 1.10,2013-08-26 02:00:00,
2013-08-25 20:15:00,69.2,60.0,29.80,WSW,250,0.0,7.0,73,0.05,,,0.20,weatherlink.com 1.10,2013-08-26 02:15:00,
2013-08-25 20:30:00,69.4,63.0,29.81,West,264,0.0,0.0,79,0.02,,,0.20,weatherlink.com 1.10,2013-08-26 02:30:00,
2013-08-25 20:45:00,67.7,63.0,29.81,ENE,64,0.0,0.0,85,0.01,,,0.20,weatherlink.com 1.10,2013-08-26 02:45:00,
2013-08-25 21:01:00,67.3,62.0,29.81,NE,45,0.0,0.0,82,0.00,,,0.20,weatherlink.com 1.10,2013-08-26 03:01:00,
2013-08-25 21:16:00,67.6,61.0,29.81,ENE,57,0.0,0.0,78,0.00,,,0.20,weatherlink.com 1.10,2013-08-26 03:16:00,
2013-08-25 21:31:00,67.8,62.0,29.81,ENE,57,0.0,0.0,81,0.00,,,0.20,weatherlink.com 1.10,2013-08-26 03:31:00,
2013-08-25 21:46:00,67.4,60.0,29.81,East,91,0.0,0.0,77,0.00,,,0.20,weatherlink.com 1.10,2013-08-26 03:46:00,
2013-08-25 22:01:00,67.7,60.0,29.82,ENE,65,0.0,0.0,77,0.00,,,0.20,weatherlink.com 1.10,2013-08-26 04:01:00,
2013-08-25 22:16:00,67.5,59.0,29.82,ENE,65,0.0,0.0,75,0.00,,,0.20,weatherlink.com 1.10,2013-08-26 04:16:00,
2013-08-25 22:31:00,67.3,60.0,29.82,ENE,65,0.0,0.0,77,0.00,,,0.20,weatherlink.com 1.10,2013-08-26 04:31:00,
2013-08-25 22:46:00,67.6,60.0,29.82,ENE,65,0.0,0.0,76,0.00,,,0.20,weatherlink.com 1.10,2013-08-26 04:46:00,
2013-08-25 23:01:00,69.2,61.0,29.83,WNW,298,0.0,0.0,74,0.00,,,0.20,weatherlink.com 1.10,2013-08-26 05:01:00,
2013-08-25 23:16:00,69.4,60.0,29.84,NNW,335,0.0,0.0,73,0.00,,,0.20,weatherlink.com 1.10,2013-08-26 05:16:00,
2013-08-25 23:31:00,69.1,61.0,29.84,NNW,335,0.0,0.0,76,0.00,,,0.20,weatherlink.com 1.10,2013-08-26 05:31:00,
2013-08-25 23:46:00,68.9,61.0,29.84,NNE,15,0.0,0.0,76,0.00,,,0.20,weatherlink.com 1.10,2013-08-26 05:46:00,